Wisconsin Rapids, WI

10:24 PM CDT on July 20, 2017 (GMT -0500)
Alexander Field South Wood County

Weather History for KISW - August, 2013

Change the Weather History Date:

Saturday, August 10, 2013

  Actual Average Record
Temperature  
Mean Temperature 64 °F -  
Max Temperature 75 °F 78 °F 93 °F (1949)
Min Temperature 55 °F 55 °F 41 °F (1962)
Degree Days  
Heating Degree Days 1    
Growing Degree Days 14 (Base 50)    
Moisture  
Dew Point 52 °F    
Average Humidity 65    
Maximum Humidity 93    
Minimum Humidity 38    
Precipitation  
Precipitation 0.00 in - - ()
Sea Level Pressure  
Sea Level Pressure 30.15 in    
Wind  
Wind Speed 2 mph (NW)    
Max Wind Speed 9 mph    
Max Gust Speed -    
Visibility 10 miles    
Events      
Averages and records for this station are not official NWS values.
T = Trace of Precipitation, MM = Missing Value Source: NWS Daily Summary

Daily Weather History Graph

Daily Weather History Graph

Search for Another Location

Airport or City:

Trip Planner

Search our weather history database for the weather conditions in past years. The results will help you decide how hot, cold, wet, or windy it might be!

Date:

Astronomy

Aug. 10, 2013 Rise Set
Actual Time 5:56 AM CDT 8:11 PM CDT
Civil Twilight 5:24 AM CDT 8:43 PM CDT
Nautical Twilight 4:45 AM CDT 9:23 PM CDT
Astronomical Twilight 4:00 AM CDT 10:06 PM CDT
Moon 9:54 AM CDT (8/10) 9:40 PM CDT (8/10)
Length of Visible Light 15h 18m
Length of Day
14h 14m
Waxing Crescent, 14% of the Moon is Illuminated
Aug 10
Waxing Crescent
Aug 14
First Quarter
Aug 20
Full
Aug 28
Last Quarter
Sep 5
New

Hourly Weather History & Observations

Time (CDT) Temp. Dew Point Humidity Pressure Visibility Wind Dir Wind Speed Gust Speed Precip Events Conditions
12:54 AM 59.0 °F 52.0 °F 78% 30.11 in 10.0 mi Calm Calm - N/A   Overcast
1:54 AM 59.0 °F 52.0 °F 78% 30.12 in 10.0 mi Calm Calm - N/A   Overcast
2:54 AM 59.0 °F 53.1 °F 81% 30.12 in 10.0 mi Calm Calm - N/A   Overcast
3:54 AM 59.0 °F 54.0 °F 83% 30.14 in 10.0 mi Calm Calm - N/A   Overcast
4:54 AM 60.1 °F 54.0 °F 80% 30.14 in 10.0 mi Calm Calm - N/A   Overcast
5:54 AM 60.1 °F 54.0 °F 80% 30.15 in 10.0 mi NW 4.6 mph - N/A   Overcast
6:54 AM 61.0 °F 54.0 °F 78% 30.16 in 10.0 mi NNW 3.5 mph - N/A   Overcast
7:54 AM 63.0 °F 54.0 °F 72% 30.16 in 10.0 mi North 4.6 mph - N/A   Overcast
8:54 AM 66.0 °F 52.0 °F 60% 30.17 in 10.0 mi NNE 5.8 mph - N/A   Overcast
9:54 AM 68.0 °F 52.0 °F 56% 30.18 in 10.0 mi Calm Calm - N/A   Overcast
10:54 AM 71.1 °F 52.0 °F 51% 30.19 in 10.0 mi NW 8.1 mph - N/A   Overcast
11:54 AM 71.1 °F 52.0 °F 51% 30.19 in 10.0 mi Calm Calm - N/A   Overcast
12:54 PM 71.1 °F 52.0 °F 51% 30.18 in 10.0 mi WNW 5.8 mph - N/A   Overcast
1:54 PM 73.0 °F 50.0 °F 44% 30.17 in 10.0 mi NW 9.2 mph - N/A   Mostly Cloudy
2:54 PM 73.9 °F 46.9 °F 38% 30.17 in 10.0 mi West 6.9 mph - N/A   Overcast
3:54 PM 73.0 °F 48.0 °F 41% 30.16 in 10.0 mi NW 4.6 mph - N/A   Overcast
4:54 PM 73.0 °F 48.9 °F 42% 30.15 in 10.0 mi North 4.6 mph - N/A   Overcast
5:54 PM 72.0 °F 50.0 °F 46% 30.14 in 10.0 mi NW 8.1 mph - N/A   Overcast
6:54 PM 72.0 °F 48.9 °F 44% 30.13 in 10.0 mi North 5.8 mph - N/A   Scattered Clouds
7:54 PM 66.9 °F 52.0 °F 59% 30.14 in 10.0 mi Calm Calm - N/A   Clear
8:54 PM 59.0 °F 53.1 °F 81% 30.14 in 10.0 mi Calm Calm - N/A   Clear
9:54 PM 57.0 °F 53.1 °F 87% 30.14 in 10.0 mi Calm Calm - N/A   Clear
10:54 PM 55.0 °F 52.0 °F 89% 30.13 in 10.0 mi Calm Calm - N/A   Clear
11:54 PM 55.0 °F 53.1 °F 93% 30.14 in 10.0 mi Calm Calm - N/A   Clear